Home > Weather > Barquisimeto > Past weeks

Flag for Venezuela Past Weather in Barquisimeto, Venezuela — Yesterday and Last 2 Weeks

Now
82 °F

Scattered clouds.


Feels Like: 85 °F
Forecast: 67 / 84 °F
Wind: 12 mph from East

Location: Barquisimeto Airport

Current Time: Jun 26, 2016 at 3:10:24 PM

Latest Report: Jun 26, 2016 at 3:00 PM


Visibility: N/A

Pressure: 30.04 "Hg (28.16 "Hg at 569m altitude)

Humidity: 58%

Dew Point: 66 °F

Location of BarquisimetoLocation

Past Weather in Barquisimeto — Graph

°F

Barquisimeto Temperature Yesterday

Maximum temperature yesterday: 84 °F (at 3:00 PM)
Minimum temperature yesterday: 70 °F (at 5:00 AM)
Average temperature yesterday: 76 °F

High & Low Weather Summary for the Past Weeks

 TemperatureHumidityPressure
High90 °F (Jun 12, 5:00 PM)100% (Jun 20, 11:00 AM)30.15 "Hg (Jun 20, 11:00 AM)
Low68 °F (Jun 16, 6:00 AM)29% (Jun 12, 5:00 PM)29.98 "Hg (Jun 17, 6:00 PM)
Average77 °F72%30.06 "Hg
* Reported Jun 11 1:00 PM — Jun 26 1:00 PM, Barquisimeto, Weather by CustomWeather, © 2016

Note: Actual official high and low records may vary slightly from our data, if they occured in-between our weather recording intervals... More about our weather records

Advertising

Barquisimeto Weather History for the Previous 24 Hours

Scroll right to see more
 ConditionsComfort  
Time TempWeatherWind HumidityBarometerVisibility
1:00 PM
Sun, Jun 26
82 °FScattered clouds.12 mph58%30.07 "HgN/A
12:00 PM81 °FScattered clouds.13 mph62%30.09 "HgN/A
11:00 AM79 °FScattered clouds.13 mph65%30.09 "HgN/A
10:00 AM77 °FPartly sunny.18 mph69%30.09 "HgN/A
9:00 AM75 °FPartly sunny.20 mph74%30.09 "HgN/A
8:00 AM73 °FPartly sunny.12 mph78%30.07 "HgN/A
7:00 AM72 °FFog.12 mph83%30.07 "Hg6 mi
6:00 AM72 °FFog.2 mph83%30.07 "Hg5 mi
11:00 PM
Sat, Jun 25
72 °FPassing clouds.6 mph83%30.07 "HgN/A
10:00 PM72 °FPassing clouds.5 mph83%30.07 "HgN/A
9:00 PM72 °FPassing clouds.6 mph83%30.04 "HgN/A
8:00 PM73 °FPassing clouds.6 mph78%30.01 "HgN/A
7:00 PM75 °FPartly cloudy.10 mph74%29.98 "HgN/A
6:00 PM77 °FScattered showers. Partly sunny.12 mph69%29.98 "HgN/A
5:00 PM82 °FScattered showers. Broken clouds.10 mph55%29.98 "HgN/A
4:00 PM84 °FBroken clouds.14 mph51%29.98 "HgN/A
3:00 PM84 °FPartly sunny.15 mph51%30.01 "HgN/A
Weather by CustomWeather, © 2016

See weather overviewHow to use our weather pages